CES5334 ZGSZ-ZSSS

Flight info

Callsign CES5334
Flight time N/A
Altitude 41100
Route SULAS V17 UBDOB V18 XEBUL H22 UPNUG W76 AREPI B221 SHZ G204 AND
Aircraft A359/H-SDE2E3GHIJ3J4J5LM1ORWXY/LB1D1

Departure

Time 2026-04-14 05:06
Airport Shenzhen Bao'an International Airport (ZGSZ)

Arrival

Time N/A
Airport Shanghai Hongqiao International Airport (ZSSS)
Time Latitude Longitude Altitude Speed Heading
2026-04-14 04:55 22.63155 113.80718 22 ft 0 kts 241°
2026-04-14 04:56 22.63159 113.80726 22 ft 3 kts 243°
2026-04-14 04:56 22.63168 113.80746 24 ft 3 kts 247°
2026-04-14 04:56 22.63175 113.80763 23 ft 2 kts 245°
2026-04-14 04:56 22.63181 113.80780 24 ft 3 kts 266°
2026-04-14 04:57 22.63181 113.80795 27 ft 3 kts 297°
2026-04-14 04:57 22.63171 113.80810 26 ft 3 kts 321°
2026-04-14 04:57 22.63155 113.80822 26 ft 3 kts 330°
2026-04-14 04:57 22.63145 113.80828 26 ft 0 kts 332°
2026-04-14 05:00 22.63151 113.80825 26 ft 4 kts 333°
2026-04-14 05:00 22.63202 113.80801 23 ft 9 kts 348°
2026-04-14 05:01 22.63253 113.80830 22 ft 11 kts 38°
2026-04-14 05:01 22.63302 113.80920 22 ft 17 kts 69°
2026-04-14 05:01 22.63374 113.81033 23 ft 16 kts 30°
2026-04-14 05:01 22.63434 113.81017 22 ft 7 kts 312°
2026-04-14 05:02 22.63493 113.80968 22 ft 11 kts 340°
2026-04-14 05:02 22.63589 113.80924 22 ft 19 kts 333°
2026-04-14 05:02 22.63728 113.80848 22 ft 26 kts 333°
2026-04-14 05:02 22.63908 113.80749 22 ft 32 kts 333°
2026-04-14 05:03 22.64122 113.80632 22 ft 37 kts 333°
2026-04-14 05:03 22.64363 113.80499 22 ft 40 kts 333°
2026-04-14 05:03 22.64613 113.80362 22 ft 27 kts 333°
2026-04-14 05:03 22.64737 113.80294 22 ft 22 kts 333°
2026-04-14 05:04 22.64893 113.80208 22 ft 28 kts 333°
2026-04-14 05:04 22.65080 113.80105 22 ft 30 kts 333°
2026-04-14 05:04 22.65180 113.80112 22 ft 8 kts 59°
2026-04-14 05:04 22.65207 113.80178 22 ft 11 kts 64°
2026-04-14 05:05 22.65250 113.80276 22 ft 17 kts 74°
2026-04-14 05:05 22.65184 113.80371 22 ft 19 kts 151°
2026-04-14 05:05 22.64910 113.80524 22 ft 80 kts 153°
2026-04-14 05:05 22.64210 113.80908 22 ft 144 kts 153°
2026-04-14 05:06 22.63223 113.81445 524 ft 160 kts 154°
2026-04-14 05:06 22.62266 113.81982 1512 ft 149 kts 155°
2026-04-14 05:06 22.61956 113.82157 1864 ft 147 kts 155°